This is the latest recevied weather packets stored in our database for station/object CE3TDM-10. If no packets are shown the sender has not sent any weather packets the latest 10 day(s).
| Time | Temp. | Humidity | Pressure | Rain* | Wind** | Luminosity | Snow |
|---|---|---|---|---|---|---|---|
| 1787592836 | 28.89° C | 33% | 922.1 hPa | - | - | - | - |
| 1787591936 | 30° C | 32% | 922.5 hPa | - | - | - | - |
| 1787591035 | 30.56° C | 33% | 922.4 hPa | - | - | - | - |
| 1787590135 | 30.56° C | 33% | 922 hPa | - | - | - | - |
| 1787589237 | 30.56° C | 35% | 921.5 hPa | - | - | - | - |
| 1787588335 | 28.33° C | 38% | 922.2 hPa | - | - | - | - |
| 1787586588 | 22.78° C | 40% | 921.9 hPa | - | - | - | - |
| 1787586535 | 22.78° C | 40% | 921.9 hPa | - | - | - | - |
| 1787584735 | 22.22° C | 40% | 922.1 hPa | - | - | - | - |
| 1787583835 | 22.22° C | 40% | 922 hPa | - | - | - | - |
| 1787582035 | 22.22° C | 40% | 922 hPa | - | - | - | - |
| 1787579334 | 22.22° C | 40% | 922 hPa | - | - | - | - |
| 1787578434 | 21.67° C | 40% | 921.5 hPa | - | - | - | - |
| 1787573935 | 21.11° C | 40% | 922.2 hPa | - | - | - | - |
| 1787573035 | 21.11° C | 40% | 922 hPa | - | - | - | - |
| 1787572134 | 21.11° C | 40% | 921.4 hPa | - | - | - | - |
| 1787569434 | 21.11° C | 40% | 921 hPa | - | - | - | - |
| 1787568534 | 21.11° C | 40% | 920.8 hPa | - | - | - | - |
| 1787567633 | 21.11° C | 40% | 921.3 hPa | - | - | - | - |
| 1787566733 | 21.11° C | 40% | 921.2 hPa | - | - | - | - |
| 1787565833 | 20.56° C | 41% | 921.4 hPa | - | - | - | - |
| 1787564933 | 20° C | 40% | 921.4 hPa | - | - | - | - |
| 1787564186 | 20° C | 40% | 921.7 hPa | - | - | - | - |
| 1787564033 | 20° C | 40% | 921.7 hPa | - | - | - | - |
| 1787562601 | 20° C | 41% | 921.9 hPa | - | - | - | - |
* Rain since midnight (hover to see other rain measurements)
** Current wind speed in m/s (hover to see current wind gust speed)